This demonstration page uses our WeatherBlox Daily Observations layout. Learn more.

Left ArrowRight Arrow

41.55636, -103.73856

Hourly Observations for July 22, 2018

Temp ( °F °C ) Dew Point ( °F °C ) Humidity (%) Winds ( mph kmh ) Pressure ( in mb ) Visibility ( mi km ) Precip ( " mm )
12:58 am 00:58 Mostly Clear 64 17.6 59 15 85 85 SW 6 9 29.97 1015 10 16 N/A
1:58 am 01:58 Mostly Cloudy 64 17.5 58 14.6 83 83 S 5 7 29.96 1015 10 16 N/A
2:58 am 02:58 Mostly Cloudy 62 16.9 58 14.7 87 87 SSW 5 7 29.95 1014 10 16 N/A
3:58 am 03:58 Partly Cloudy 61 16.3 58 14.2 87 87 W 3 6 29.94 1014 10 16 N/A
4:58 am 04:58 Mostly Clear 62 16.7 58 14.3 86 86 N N/A 29.94 1014 10 16 N/A
5:58 am 05:58 Sunny 62 16.4 57 13.8 85 85 SW 5 7 29.95 1014 10 16 N/A
6:58 am 06:58 Sunny 63 17 58 14.5 85 85 SSW 5 7 30.00 1016 10 16 N/A
7:58 am 07:58 Sunny 73 22.6 59 15.1 63 63 N N/A 29.98 1015 10 16 N/A
8:58 am 08:58 Sunny 81 27.3 53 11.5 37 37 N 14 22 29.97 1015 10 16 N/A
9:58 am 09:58 Sunny 86 30.1 52 10.9 30 30 NNW 16 26 29.98 1015 10 16 N/A
10:58 am 10:58 Sunny 87 30.6 50 10.2 28 28 NW 17 28 29.98 1015 10 16 N/A
11:58 am 11:58 Mostly Sunny 87 30.5 50 10 28 28 NNW 17 28 30.00 1016 10 16 N/A
12:58 pm 12:58 Sunny 83 28.3 52 11.3 35 35 NNW 22 35 30.04 1017 10 16 N/A
1:58 pm 13:58 Mostly Sunny 84 28.7 51 10.3 32 32 N 24 39 30.05 1018 10 16 N/A
2:58 pm 14:58 Mostly Cloudy 85 29.5 50 10.2 30 30 N 25 41 30.04 1017 10 16 N/A
3:58 pm 15:58 Mostly Sunny 85 29.3 50 9.8 30 30 N 24 39 30.07 1018 10 16 N/A
4:58 pm 16:58 Sunny 80 26.9 51 10.4 36 36 N 22 35 30.08 1019 10 16 N/A
5:58 pm 17:58 Sunny 80 26.4 57 14 46 46 N 16 26 30.09 1019 10 16 N/A
6:58 pm 18:58 Sunny 76 24.6 60 15.7 58 58 NNE 18 30 30.09 1019 10 16 N/A
7:58 pm 19:58 Sunny 73 22.5 60 15.3 64 64 N 10 17 30.11 1020 10 16 N/A
8:58 pm 20:58 Mostly Cloudy 70 21 59 14.9 68 68 N 9 15 30.15 1021 10 16 N/A
9:58 pm 21:58 Cloudy 69 20.4 57 13.9 66 66 NNE 8 13 30.17 1022 10 16 N/A
10:58 pm 22:58 Cloudy 68 19.9 56 13.1 65 65 N 7 11 30.19 1022 10 16 N/A
11:58 pm 23:58 Cloudy 67 19.2 56 13.1 68 68 N 8 13 30.19 1022 10 16 N/A

Powered by AerisWeather